Tracking 28790 objects as of 18-Apr-2024
HD Live streaming from Space Station
objects crossing your sky now

SRMSAT

Track SRMSAT now!
10-day predictions
SRMSAT is classified as:


NORAD ID: 37841
Int'l Code: 2011-058D
Perigee: 854.3 km
Apogee: 871.4 km
Inclination: 20.0 °
Period: 102.0 minutes
Semi major axis: 7233 km
RCS: 0.1933 m2 (medium)
Launch date: October 12, 2011
Source: India (IND)
Launch site: SRIHARIKOTA (SRI)

Uplink (MHz): 145.900
Downlink (MHz): 437.500
Beacon (MHz): 437.425
Mode: CW
Call sign:
Status: Inactive

Your satellite tracking list
Your tracking list is empty




NASA's NSSDC Master Catalog

Two Line Element Set (TLE):
1 37841U 11058D   24109.52266980  .00000747  00000-0  26410-3 0  9996
2 37841  19.9711 157.6405 0011852 157.6959 348.3235 14.11077766646341
Source of the keplerian elements: Caltech